Regional Weather Roundup
Issued by NWS

Home | Current Version | Previous Version | Text Only | Print | Product List | Glossary Off
Versions: 1 2 3 4 5 6 7 8 9 10 11 12 13 14 15 16 17 18 19 20 21 22 23 24 25 26 27 28

000
ASUS45 KPSR 251110
RWRAZ

ARIZONA HOURLY REGIONAL WEATHER ROUNDUP
NATIONAL WEATHER SERVICE PHOENIX AZ
400 AM MST MON JUL 25 2016

NOTE: FAIR INDICATES FEW OR NO CLOUDS BELOW 12,000 FEET WITH NO
SIGNIFICANT WEATHER AND/OR OBSTRUCTIONS TO VISIBILITY.

AZZ001>003-036-251200-
NORTHWEST ARIZONA

CITY           SKY/WX    TMP DP  RH WIND       PRES   REMARKS
BULLHEAD CITY  FAIR      91  61  35 SW8       29.80S
KINGMAN        FAIR      79  52  38 SE5       30.03S
$$

AZZ004>008-015-016-018-251200-
NORTH CENTRAL ARIZONA

CITY           SKY/WX    TMP DP  RH WIND       PRES   REMARKS
GRAND CANYON   FAIR      52  48  86 NE5       30.31S
WILLIAMS       FAIR      59  50  72 SE8       30.38S
PRESCOTT       FAIR      70  55  59 SW5       30.17S
FLAGSTAFF      FAIR      54  46  74 CALM      30.33S
PAYSON         FAIR      72  46  40 S3        30.22R
PAGE           FAIR      76  45  33 CALM      30.10R
$$

AZZ009>014-017-251200-
NORTHEAST ARIZONA

CITY           SKY/WX    TMP DP  RH WIND       PRES   REMARKS
WINSLOW        FAIR      68  49  50 CALM      30.18S
SAINT JOHNS    FAIR      68  53  58 CALM      30.23F
WINDOW ROCK    FAIR      66  52  60 W5        30.30R
SHOW LOW       FAIR      64  45  48 S12       30.30S
$$

AZZ023-251200-
GREATER PHOENIX AREA

CITY           SKY/WX    TMP DP  RH WIND       PRES   REMARKS
PHOENIX        FAIR      90  62  39 SE7       29.87F
BUCKEYE        FAIR      84  63  48 CALM      29.90S
LUKE AFB       FAIR      88  62  41 SW13      29.87R
DEER VALLEY    FAIR      87  60  40 CALM      29.91R
SCOTTSDALE     FAIR      89  62  40 CALM      29.92F
MESA-GATEWAY   FAIR      86  61  42 SE7       29.91F
$$

AZZ027-028-251200-
SOUTHWEST MARICOPA COUNTY AND PINAL COUNTY

CITY           SKY/WX    TMP DP  RH WIND       PRES   REMARKS
CASA GRANDE    FAIR      88  59  37 SW9       29.91F
GILA BEND      MOCLDY    88  58  35 S3        29.87S
$$

AZZ503-504-507>509-251200-
SOUTHEAST ARIZONA

CITY           SKY/WX    TMP DP  RH WIND       PRES   REMARKS
TUCSON         FAIR      83  58  42 S13       30.03F
DAVIS-MONTHAN  FAIR      81  57  44 S6        30.02F
NOGALES        FAIR      71  59  65 NE5       30.11F
SIERRA VISTA   CLOUDY    68  57  68 NW7       30.15F
DOUGLAS        FAIR      67  63  87 CALM      30.11F
SAFFORD        FAIR      80  54  40 E8        30.04S
$$

AZZ020-021-025-026-031-251200-
SOUTHWEST ARIZONA

CITY           SKY/WX    TMP DP  RH WIND       PRES   REMARKS
YUMA           FAIR      85  71  63 SE8       29.82S
$$

CAZ031-033-041-043-047-048-061-251200-
SOUTHERN CALIFORNIA

CITY           SKY/WX    TMP DP  RH WIND       PRES   REMARKS
DOWNTOWN L.A.  FAIR      71  66  84 CALM      29.91F
L.A. AIRPORT   FAIR      70  65  84 CALM      29.91F
SAN DIEGO      MOCLDY    67  66  97 W5        29.92S
BURBANK        FAIR      70  65  84 CALM      29.93S
ONTARIO        FAIR      70  61  73 VRB3      29.94S
RIVERSIDE      FAIR      72  62  71 CALM      29.94S
PALM SPRINGS   FAIR      89  53  29 N7        29.85F
EL CENTRO NAS  FAIR      84  74  71 CALM      29.81R
IMPERIAL       FAIR      86  76  71 SE9       29.79R
BLYTHE         FAIR      86  70  58 S13       29.82R
NEEDLES        FAIR      94  62  34 W10       29.82R
$$

NVZ020-UTZ003-251200-
SOUTHERN NEVADA-UTAH

CITY           SKY/WX    TMP DP  RH WIND       PRES   REMARKS
LAS VEGAS      FAIR      91  32  12 S10       29.83R
SALT LAKE CITY FAIR      76  39  26 S9        30.03F
$$

NMZ009-TXZ055-251200-
NEW MEXICO-WEST TEXAS

CITY           SKY/WX    TMP DP  RH WIND       PRES   REMARKS
ALBUQUERQUE    CLOUDY    69  57  65 E6        30.24R
EL PASO        MOCLDY    83  53  35 N10       30.05S
$$


........................KEY........................
SKY/WX - SKY CONDITION/WEATHER
TMP    - TEMPERATURE IN FAHRENHEIT
DP     - DEW POINT IN FAHRENHEIT
RH     - RELATIVE HUMIDITY IN PERCENT
WIND   - DIRECTION AND SPEED IN MILES PER HOUR (MPH)
VRB    - VARIABLE WIND DIRECTION
PRES   - MEAN SEA LEVEL PRESSURE IN INCHES OF MERCURY
         F - FALLING PRESSURE   R - RISING PRESSURE
         S - STEADY PRESSURE
VSB    - VISIBILITY IN MILES
HX     - HEAT INDEX IN FAHRENHEIT
WCI    - WIND CHILL INDEX IN FAHRENHEIT
TC     - TEMPERATURE IN CELSIUS WHICH IS ALSO KNOWN AS
         TEMPERATURE IN CENTIGRADE
AFB    - AIR FORCE BASE
         LUKE AFB IS LUKE AIR FORCE BASE
         DAVIS-MONTHAN IS DAVIS-MONTHAN AIR FORCE BASE
NAS    - NAVAL AIR STATION
         EL CENTRO NAS IS EL CENTRO NAVAL AIR STATION
N/A    - NOT AVAILABLE





USA.gov is the U.S. government's official web portal to all federal, state and local government web resources and services.